sat.trackr.live / text

‹ back to catalog

STARLINK-5374

NORAD 56144 · 2023-046BE

PAYLOAD ACTIVE UNKNOWN

§ Identity

Operator
Country
US
Launch date
2023-03-29
Launch site
AFETR
Launch vehicle
Mass (kg)
RCS (m²)

Purposes: comms

External: N2YO · Heavens-Above · Gunter

§ Orbital elements

Epoch: 2026-05-25T01:46:44.465664Z

Period
94.27 min
Inclination
43.0032°
Eccentricity
0.0001746
Mean motion
15.27577096 rev/d
Perigee alt
481.9 km
Apogee alt
484.3 km
Semi-major
6,861.2 km
B*
1.6680e-5
RAAN
75.4726°
Arg perigee
274.0350°
Mean anomaly
86.0302°
Rev number
17,388

§ Raw data

STARLINK-53741 56144U 23046BE  26145.07412576  .00000197  00000+0  16680-4 0  99962 56144  43.0032  75.4726 0001746 274.0350  86.0302 15.27577096173889

JSON: /api/v1/satellites/56144 · /tle

For live sub-satellite position, see the globe view (requires WebGL).

§ Visibility from observer

Set your observer location to see the next 7 days of passes ≥ 10°. The values pass through the URL so the page stays shareable.

No JS? Fill the form by hand. The geolocation button needs JavaScript.